Location: Axtheid
(49.6213°N, 11.8205°E)
Time: 17:41:54
(UTC+00:00)

Meteor 2-3 Rocket - Pass Details

Date: 18 February 2020
Orbit: 842 x 885 km, 81.3° (Epoch: 31 March)

Event Time Altitude Azimuth Distance (km) Brightness Sun altitude
Rises 04:49:20 0° 341° (NNW) 3,463 6.7 -15.0°
Reaches altitude 10° 04:51:56 10° 333° (NNW) 2,528 5.9 -14.6°
Maximum altitude 04:57:04 35° 270° (W) 1,385 4.3 -13.8°
Drops below altitude 10° 05:02:13 10° 206° (SSW) 2,533 6.0 -12.9°
Sets 05:04:51 0° 198° (SSW) 3,471 6.7 -12.5°
